Darstellungsparameter: Aktuell verwendete Einstellungen:
Skalierung der Graphiken ... ?
xyx+y,   Skalierungsfaktor:      Skalierung: Modus: x, Faktor: 1
Darstellungszeitraum ... ?
Vom - - bis: - -   Zeitraum: 29.09.2010 - 29.09.2010
Min/Max/Avg-Anzeige ... ?
Zeige MMA aktuell
Zeige MMA Monat
Zeige MMA alles
Zeige --A aktuell
Zeige --A Monat
Zeige --A alles
Keine MMA-Anzeige
MMA:
Average (ber die Originaldaten)
MMA-Basis: 29.09.2010 - 29.09.2010
Quicknavigation für Darstellung... ?
Tage:      1T, 2T, 3T, 5T -1T -2T -3T -5T +1T +2T +3T +5T
Wochen: 1W, 2W, 3W -1W -2W -3W +1W +2W +3W
Monate: 1M, 3M, 6M -1M -3M -6M +1M +3M +6M
Jahre:    1J, 3J, 5J, 10J -1J -3J -5J -10J +1J +3J +5J +10J
Nutze für die Darstellung ... ?
Originaldaten oder Mittelwerte auf ...
Stundenbasis Tagesbasis Wochenbasis
Monatsbasis Jahresbasis      Datenbasis: Original-Daten
Darstellen als:
Statistik (Auto) Statistik J:M      Darstellung:
Zur Graphik,    zurück zur Übersicht aller Sensoren.
 
Tabellarische Datenbersicht: ?
 
Sensor: Nr:Datum:Temp:Abs-Feuchte:Windchill:Wind:
Aussen-T/F 1 29-09-2010 00:00:02 11.6 C 9.87 g/m*3 11.6 C 0 km/h
2 29-09-2010 00:12:02 11.7 C 9.94 g/m*3 11.7 C 0 km/h
3 29-09-2010 00:24:02 11.6 C 9.87 g/m*3 11.6 C 0 km/h
4 29-09-2010 00:36:02 11.7 C 9.94 g/m*3 11.7 C 0 km/h
5 29-09-2010 00:48:02 11.6 C 9.87 g/m*3 11.6 C 0 km/h
6 29-09-2010 01:00:02 11.7 C 9.94 g/m*3 11.7 C 0 km/h
7 29-09-2010 01:12:03 11.6 C 9.87 g/m*3 11.6 C 0 km/h
8 29-09-2010 01:24:02 11.6 C 9.87 g/m*3 11.6 C 0 km/h
9 29-09-2010 01:36:02 11.6 C 9.87 g/m*3 11.6 C 0 km/h
10 29-09-2010 01:48:01 11.6 C 9.87 g/m*3 11.6 C 0 km/h
11 29-09-2010 02:00:01 11.6 C 9.87 g/m*3 11.6 C 0 km/h
12 29-09-2010 02:12:02 11.6 C 9.87 g/m*3 11.6 C 0 km/h
13 29-09-2010 02:24:01 11.5 C 9.81 g/m*3 11.5 C 0 km/h
14 29-09-2010 02:36:02 11.5 C 9.81 g/m*3 11.5 C 0 km/h
15 29-09-2010 02:48:01 11.6 C 9.87 g/m*3 11.6 C 0 km/h
16 29-09-2010 03:00:01 11.4 C 9.75 g/m*3 11.4 C 0 km/h
17 29-09-2010 03:12:01 11.3 C 9.69 g/m*3 11.3 C 0 km/h
18 29-09-2010 03:24:02 11.4 C 9.75 g/m*3 11.4 C 0 km/h
19 29-09-2010 03:36:01 11.7 C 9.94 g/m*3 11.7 C 0 km/h
20 29-09-2010 03:48:01 11.6 C 9.87 g/m*3 11.6 C 0 km/h
21 29-09-2010 04:00:01 11.6 C 9.87 g/m*3 11.6 C 0 km/h
22 29-09-2010 04:12:02 11.6 C 9.87 g/m*3 11.6 C 0 km/h
23 29-09-2010 04:24:01 11.6 C 9.87 g/m*3 11.6 C 0 km/h
24 29-09-2010 04:36:01 11.3 C 9.69 g/m*3 11.3 C 0 km/h
25 29-09-2010 04:48:01 11.3 C 9.69 g/m*3 11.3 C 0 km/h
Sensor: Nr:Datum:Temp:Abs-Feuchte:Windchill:Wind:
Aussen-T/F 26 29-09-2010 05:00:01 11.4 C 9.75 g/m*3 11.4 C 0 km/h
27 29-09-2010 05:12:02 11.4 C 9.75 g/m*3 11.4 C 0 km/h
28 29-09-2010 05:24:01 11.4 C 9.75 g/m*3 11.4 C 0 km/h
29 29-09-2010 05:36:01 11.4 C 9.75 g/m*3 11.4 C 0 km/h
30 29-09-2010 05:48:01 11.4 C 9.75 g/m*3 11.4 C 0 km/h
31 29-09-2010 06:00:01 11.7 C 9.94 g/m*3 11.7 C 0 km/h
32 29-09-2010 06:12:01 11.6 C 9.87 g/m*3 11.6 C 0 km/h
33 29-09-2010 06:24:02 11.5 C 9.81 g/m*3 11.5 C 0 km/h
34 29-09-2010 06:36:01 11.5 C 9.81 g/m*3 11.5 C 0 km/h
35 29-09-2010 06:48:02 11.3 C 9.69 g/m*3 11.3 C 0 km/h
36 29-09-2010 07:00:02 11.1 C 9.57 g/m*3 11.1 C 0 km/h
37 29-09-2010 07:12:01 10.8 C 9.39 g/m*3 10.8 C 0 km/h
38 29-09-2010 07:24:02 11 C 9.51 g/m*3 11 C 0 km/h
39 29-09-2010 07:36:01 11.2 C 9.63 g/m*3 11.2 C 0 km/h
40 29-09-2010 07:48:02 11.1 C 9.57 g/m*3 11.1 C 0 km/h
41 29-09-2010 08:00:02 11 C 9.51 g/m*3 11 C 0 km/h
42 29-09-2010 08:12:01 11.2 C 9.63 g/m*3 11.2 C 0 km/h
43 29-09-2010 08:24:01 11.2 C 9.63 g/m*3 11.2 C 0 km/h
44 29-09-2010 08:36:01 11.1 C 9.57 g/m*3 11.1 C 0 km/h
45 29-09-2010 08:48:02 11.4 C 9.75 g/m*3 11.4 C 0 km/h
46 29-09-2010 09:00:02 11.6 C 9.87 g/m*3 11.6 C 0 km/h
47 29-09-2010 09:12:01 11.2 C 9.53 g/m*3 11.2 C 0 km/h
48 29-09-2010 09:24:01 10.8 C 9.19 g/m*3 10.8 C 0 km/h
49 29-09-2010 09:36:02 11.7 C 9.62 g/m*3 11.7 C 0 km/h
50 29-09-2010 09:48:01 11.9 C 9.64 g/m*3 11.9 C 0 km/h
Sensor: Nr:Datum:Temp:Abs-Feuchte:Windchill:Wind:
Aussen-T/F 51 29-09-2010 10:00:01 12.1 C 9.22 g/m*3 12.1 C 0 km/h
52 29-09-2010 10:12:02 12.5 C 8.91 g/m*3 12.5 C 0 km/h
53 29-09-2010 10:24:01 12.9 C 8.79 g/m*3 12.9 C 0 km/h
54 29-09-2010 10:36:02 13.4 C 8.95 g/m*3 13.4 C 0 km/h
55 29-09-2010 10:48:01 13.7 C 9 g/m*3 13.7 C 0 km/h
56 29-09-2010 11:00:01 13.8 C 8.94 g/m*3 13.8 C 0 km/h
57 29-09-2010 11:12:02 13.7 C 8.53 g/m*3 13.7 C 0 km/h
58 29-09-2010 11:24:01 13.8 C 8.46 g/m*3 13.8 C 0 km/h
59 29-09-2010 11:36:01 14.1 C 8.01 g/m*3 14.1 C 0 km/h
60 29-09-2010 11:48:01 14.4 C 8.16 g/m*3 14.4 C 0 km/h
61 29-09-2010 12:00:01 14.5 C 8.21 g/m*3 14.5 C 0 km/h
62 29-09-2010 12:12:01 14.6 C 8.01 g/m*3 14.6 C 0 km/h
63 29-09-2010 12:24:01 14.1 C 7.52 g/m*3 14.1 C 0 km/h
64 29-09-2010 12:36:01 14 C 8.08 g/m*3 14 C 0 km/h
65 29-09-2010 12:48:01 14.8 C 8.36 g/m*3 14.8 C 0 km/h
66 29-09-2010 13:00:01 15.4 C 8.15 g/m*3 15.4 C 0 km/h
67 29-09-2010 13:12:01 15.7 C 7.89 g/m*3 15.7 C 0 km/h
68 29-09-2010 13:24:02 15.8 C 7.81 g/m*3 15.8 C 0 km/h
69 29-09-2010 13:36:01 15.9 C 7.99 g/m*3 15.9 C 0 km/h
70 29-09-2010 13:48:02 15.9 C 7.58 g/m*3 15.9 C 0 km/h
71 29-09-2010 14:00:02 16.3 C 7.35 g/m*3 16.3 C 0 km/h
72 29-09-2010 14:12:01 15.6 C 7.58 g/m*3 15.6 C 0 km/h
73 29-09-2010 14:24:02 15.8 C 7.94 g/m*3 15.8 C 0 km/h
74 29-09-2010 14:36:01 17.4 C 7.85 g/m*3 17.4 C 0 km/h
75 29-09-2010 14:48:02 19 C 7.33 g/m*3 19 C 0 km/h
Sensor: Nr:Datum:Temp:Abs-Feuchte:Windchill:Wind:
Aussen-T/F 76 29-09-2010 15:00:02 18.8 C 6.76 g/m*3 18.8 C 0 km/h
77 29-09-2010 15:12:01 18.8 C 6.93 g/m*3 18.8 C 0 km/h
78 29-09-2010 15:24:01 18.9 C 6.97 g/m*3 18.9 C 0 km/h
79 29-09-2010 15:36:02 19.6 C 6.92 g/m*3 19.6 C 0 km/h
80 29-09-2010 15:48:01 19.7 C 6.79 g/m*3 19.7 C 0 km/h
81 29-09-2010 16:00:02 18.8 C 7.41 g/m*3 18.8 C 0 km/h
82 29-09-2010 16:12:01 18.1 C 7.26 g/m*3 18.1 C 0 km/h
83 29-09-2010 16:24:01 18.1 C 7.57 g/m*3 18.1 C 0 km/h
84 29-09-2010 16:36:02 17.6 C 7.95 g/m*3 17.6 C 0 km/h
85 29-09-2010 16:48:01 18.1 C 7.88 g/m*3 18.1 C 0 km/h
86 29-09-2010 17:00:02 19 C 7.33 g/m*3 19 C 0 km/h
87 29-09-2010 17:12:01 19.4 C 7.01 g/m*3 19.4 C 0 km/h
88 29-09-2010 17:24:01 18.6 C 7.16 g/m*3 18.6 C 0 km/h
89 29-09-2010 17:36:02 17.6 C 7.95 g/m*3 17.6 C 0 km/h
90 29-09-2010 17:48:01 16.9 C 8.05 g/m*3 16.9 C 0 km/h
91 29-09-2010 18:00:01 15.9 C 7.58 g/m*3 15.9 C 0 km/h
92 29-09-2010 18:12:04 15.2 C 7.92 g/m*3 15.2 C 0 km/h
93 29-09-2010 18:24:02 14.4 C 7.91 g/m*3 14.4 C 0 km/h
94 29-09-2010 18:36:02 14 C 7.84 g/m*3 14 C 0 km/h
95 29-09-2010 18:48:01 13.6 C 7.89 g/m*3 13.6 C 0 km/h
96 29-09-2010 19:00:01 13.2 C 7.81 g/m*3 13.2 C 0 km/h
97 29-09-2010 19:12:01 13.1 C 7.76 g/m*3 13.1 C 0 km/h
98 29-09-2010 19:24:01 13 C 7.71 g/m*3 13 C 0 km/h
99 29-09-2010 19:36:02 13 C 7.6 g/m*3 13 C 0 km/h
100 29-09-2010 19:48:01 13.1 C 7.53 g/m*3 13.1 C 0 km/h
Sensor: Nr:Datum:Temp:Abs-Feuchte:Windchill:Wind:
Aussen-T/F 101 29-09-2010 20:00:01 13.3 C 7.63 g/m*3 13.3 C 0 km/h
102 29-09-2010 20:12:02 13.2 C 7.81 g/m*3 13.2 C 0 km/h
103 29-09-2010 20:24:01 13.2 C 7.81 g/m*3 13.2 C 0 km/h
104 29-09-2010 20:36:02 13 C 7.6 g/m*3 13 C 0 km/h
105 29-09-2010 20:48:01 12.9 C 7.66 g/m*3 12.9 C 0 km/h
106 29-09-2010 21:00:01 12.9 C 7.66 g/m*3 12.9 C 0 km/h
107 29-09-2010 21:12:02 12.8 C 7.84 g/m*3 12.8 C 0 km/h
108 29-09-2010 21:24:01 12.4 C 7.98 g/m*3 12.4 C 0 km/h
109 29-09-2010 21:38:05 12.2 C 8.09 g/m*3 12.2 C 0 km/h
110 29-09-2010 21:50:05 12.2 C 8.09 g/m*3 12.2 C 0 km/h
111 29-09-2010 22:02:05 12.3 C 8.25 g/m*3 12.3 C 0 km/h
112 29-09-2010 22:14:05 12.4 C 8.3 g/m*3 12.4 C 0 km/h
113 29-09-2010 22:26:05 12.4 C 8.41 g/m*3 12.4 C 0 km/h
114 29-09-2010 22:38:06 12.5 C 8.47 g/m*3 12.5 C 0 km/h
115 29-09-2010 22:50:06 12.3 C 8.36 g/m*3 12.3 C 0 km/h
116 29-09-2010 23:02:06 12 C 8.21 g/m*3 12 C 0 km/h
117 29-09-2010 23:14:06 11.8 C 8.31 g/m*3 11.8 C 0 km/h
118 29-09-2010 23:26:06 11.8 C 8.42 g/m*3 11.8 C 0 km/h
119 29-09-2010 23:38:06 12 C 8.31 g/m*3 12 C 0 km/h
120 29-09-2010 23:50:06 12.2 C 8.42 g/m*3 12.2 C 0 km/h

Legende:
   Min
   Max


Maximal/Minimal-Werte vom 29.09.2010 - 29.09.2010

Sensor Min Max Avg
Temp
(Aussen-T/F)
10.8 °C
29-09-2010  07:12:01
19.7 °C
29-09-2010  15:48:01
13.39 °C
Abs-Feuchte
(Aussen-T/F)
6.76 g/m*3
29-09-2010  15:00:02
9.94 g/m*3
29-09-2010  00:12:02
8.61 g/m*3
Windchill
(Aussen-T/F)
10.8 C
29-09-2010  07:12:01
19.7 C
29-09-2010  15:48:01
13.28 C

Die Daten stammen von einer Davis Vantage Pro 2 Wetter-Station und werden unter Linux mit der Software wview2wettercgi und aufbereitet. Alle Angaben erfolgen ohne Gewähr für ihre Vollständigkeit oder Richtigkeit.
Kontakt: Rainer Krienke krienke@uni-koblenz.de . Meine Webseiten an der Uni Koblenz oder privat.
Version: $Revision: 0.78 $